Weather History for KHLG - February, 2014

Change the Weather History Date:

Wednesday, February 19, 2014

  Actual Average Record
Temperature  
Mean Temperature 41 °F 33 °F  
Max Temperature 49 °F 41 °F 63 °F (1951)
Min Temperature 32 °F 25 °F -1 °F (2015)
Degree Days  
Heating Degree Days 24 32  
Month to date heating degree days 737 644  
Since 1 July heating degree days 4142 3886  
Cooling Degree Days 0    
Month to date cooling degree days 0  
Year to date cooling degree days 0  
Moisture  
Dew Point 32 °F    
Average Humidity 64    
Maximum Humidity 89    
Minimum Humidity 38    
Precipitation  
Precipitation 0.09 in 0.07 in 0.22 in (1991)
Month to date precipitation 1.37 1.43  
Sea Level Pressure  
Sea Level Pressure 29.88 in    
Wind  
Wind Speed 12 mph (SW)    
Max Wind Speed 32 mph    
Max Gust Speed 42 mph    
Visibility 10 miles    
Events Rain    
T = Trace of Precipitation, MM = Missing Value Source: NWS Daily Summary

Daily Weather History Graph

Daily Weather History Graph

Search for Another Location

Airport or City:

Trip Planner

Search our weather history database for the weather conditions in past years. The results will help you decide how hot, cold, wet, or windy it might be!

Date:

Astronomy

Feb. 19, 2014 Rise Set
Actual Time 7:10 AM EST 6:02 PM EST
Civil Twilight 6:42 AM EST 6:30 PM EST
Nautical Twilight 6:11 AM EST 7:02 PM EST
Astronomical Twilight 5:39 AM EST 7:33 PM EST
Moon 10:55 PM EST (2/19) 9:15 AM EST (2/19)
Length of Visible Light 11h 47m
Length of Day
10h 52m
Waning Gibbous, 80% of the Moon is Illuminated
Feb 19
Waning Gibbous
Feb 22
Last Quarter
Mar 1
New
Mar 8
First Quarter
Mar 16
Full

Hourly Weather History & Observations

Time (EST) Temp. Windchill Dew Point Humidity Pressure Visibility Wind Dir Wind Speed Gust Speed Precip Events Conditions
12:53 AM 42.1 °F 35.7 °F 19.9 °F 41% 29.86 in 10.0 mi South 11.5 mph - N/A   Clear
1:53 AM 44.1 °F 37.7 °F 21.0 °F 40% 29.82 in 10.0 mi South 12.7 mph 23.0 mph N/A   Partly Cloudy
2:53 AM 46.0 °F 40.6 °F 23.0 °F 40% 29.77 in 10.0 mi South 11.5 mph - N/A   Mostly Cloudy
3:53 AM 41.0 °F 35.8 °F 32.0 °F 70% 29.76 in 10.0 mi SSW 8.1 mph - 0.02 in Rain Light Rain
4:53 AM 41.0 °F 33.5 °F 36.0 °F 82% 29.78 in 8.0 mi SSW 13.8 mph - 0.07 in Rain Light Rain
5:53 AM 39.9 °F 33.9 °F 37.0 °F 89% 29.75 in 10.0 mi South 9.2 mph - 0.00 in Rain Light Rain
6:53 AM 41.0 °F 35.2 °F 37.9 °F 89% 29.73 in 10.0 mi South 9.2 mph - 0.00 in   Mostly Cloudy
7:53 AM 42.1 °F 35.2 °F 39.0 °F 89% 29.72 in 10.0 mi SSW 12.7 mph - N/A   Partly Cloudy
8:53 AM 43.0 °F 37.2 °F 39.0 °F 86% 29.73 in 10.0 mi SW 10.4 mph 18.4 mph N/A   Scattered Clouds
9:53 AM 44.1 °F 38.6 °F 41.0 °F 89% 29.74 in 10.0 mi SSW 10.4 mph - N/A   Overcast
10:53 AM 45.0 °F 38.9 °F 41.0 °F 86% 29.73 in 10.0 mi SW 12.7 mph 18.4 mph N/A   Overcast
11:29 AM 46.0 °F 40.2 °F 41.0 °F 83% 29.73 in 10.0 mi WSW 12.7 mph - N/A   Overcast
11:53 AM 46.9 °F - 41.0 °F 80% 29.75 in 10.0 mi WSW 16.1 mph 23.0 mph N/A   Overcast
12:53 PM 48.0 °F - 36.0 °F 63% 29.76 in 10.0 mi West 26.5 mph 38.0 mph N/A   Overcast
1:53 PM 48.0 °F - 32.0 °F 54% 29.80 in 10.0 mi West 25.3 mph 39.1 mph N/A   Partly Cloudy
2:53 PM 46.0 °F 37.2 °F 28.9 °F 51% 29.86 in 10.0 mi West 26.5 mph 39.1 mph N/A   Partly Cloudy
3:53 PM 45.0 °F 37.4 °F 28.9 °F 53% 29.93 in 10.0 mi West 18.4 mph 33.4 mph N/A   Clear
4:53 PM 44.1 °F 35.7 °F 28.0 °F 53% 29.99 in 10.0 mi West 20.7 mph 26.5 mph N/A   Mostly Cloudy
5:53 PM 41.0 °F 35.2 °F 28.0 °F 60% 30.04 in 10.0 mi West 9.2 mph - N/A   Partly Cloudy
6:53 PM 39.9 °F 33.4 °F 28.0 °F 63% 30.11 in 10.0 mi West 10.4 mph - N/A   Clear
7:53 PM 37.9 °F 31.5 °F 28.0 °F 68% 30.14 in 10.0 mi West 9.2 mph - N/A   Clear
8:53 PM 37.0 °F 32.4 °F 28.9 °F 73% 30.15 in 10.0 mi West 5.8 mph - N/A   Clear
9:53 PM 36.0 °F - 28.0 °F 73% 30.16 in 10.0 mi Calm Calm - N/A   Clear
10:53 PM 34.0 °F 29.8 °F 28.0 °F 79% 30.15 in 10.0 mi South 4.6 mph - N/A   Clear
11:53 PM 33.1 °F 30.0 °F 28.0 °F 82% 30.11 in 9.0 mi ESE 3.5 mph - N/A   Clear